W9IF-4 Weather Reports


Display with metric or nautical units.
time (UTC)temp
F
wind
direction
speed
MPH
gust
MPH
rain 1hr
in
rain 24hr
in
rain mn
in
humidity
%
barometer
mb
20170726123927 69 323 6.0 0.0 0.00 0.00 0.00 1009.5
20170726123827 69 314 5.0 0.0 0.00 0.00 0.00 1009.4
20170726123727 69 293 5.0 0.0 0.00 0.00 0.00 1009.5
20170726123627 69 309 6.0 0.0 0.00 0.00 0.00 1009.5
20170726123527 69 300 3.0 0.0 0.00 0.00 0.00 1009.5
20170726123427 69 309 3.0 0.0 0.00 0.00 0.00 1009.5
20170726123327 69 321 4.0 0.0 0.00 0.00 0.00 1009.5
20170726123227 69 326 3.0 0.0 0.00 0.00 0.00 1009.5
20170726123127 69 316 6.0 0.0 0.00 0.00 0.00 1009.5
20170726123042 69 322 0.0 0.0 0.00 0.00 0.00 1009.5
20170726122927 69 342 3.0 0.0 0.00 0.00 0.00 1009.5
20170726122827 69 333 5.0 0.0 0.00 0.00 0.00 1009.5
20170726122727 69 322 0.0 0.0 0.00 0.00 0.00 1009.5
20170726122627 69 333 0.0 0.0 0.00 0.00 0.00 1009.6
20170726122527 69 338 3.0 0.0 0.00 0.00 0.00 1009.5
20170726122427 69 332 6.0 0.0 0.00 0.00 0.00 1009.5
20170726122327 69 340 5.0 0.0 0.00 0.00 0.00 1009.5
20170726122227 69 329 6.0 0.0 0.00 0.00 0.00 1009.6
20170726122127 69 322 7.0 0.0 0.00 0.00 0.00 1009.6
20170726122028 69 307 0.0 0.0 0.00 0.00 0.00 1009.6
20170726121927 69 307 0.0 0.0 0.00 0.00 0.00 1009.6
20170726121827 69 307 0.0 0.0 0.00 0.00 0.00 1009.6
20170726121727 69 281 0.0 0.0 0.00 0.00 0.00 1009.6
20170726121627 69 281 0.0 0.0 0.00 0.00 0.00 1009.6
20170726121527 69 281 0.0 0.0 0.00 0.00 0.00 1009.6
20170726121427 69 281 0.0 0.0 0.00 0.00 0.00 1009.6
20170726121327 69 281 0.0 0.0 0.00 0.00 0.00 1009.6
20170726121227 69 281 0.0 0.0 0.00 0.00 0.00 1009.6
20170726121127 69 281 0.0 0.0 0.00 0.00 0.00 1009.6
20170726121027 69 281 0.0 0.0 0.00 0.00 0.00 1009.6
20170726120927 69 281 0.0 0.0 0.00 0.00 0.00 1009.6
20170726120827 69 281 0.0 0.0 0.00 0.00 0.00 1009.6
20170726120727 69 281 0.0 0.0 0.00 0.00 0.00 1009.6
20170726120627 69 281 0.0 0.0 0.00 0.00 0.00 1009.6
20170726120527 69 281 0.0 0.0 0.00 0.00 0.00 1009.6
20170726120427 69 281 0.0 0.0 0.00 0.00 0.00 1009.6
20170726120327 69 281 0.0 0.0 0.00 0.00 0.00 1009.6
20170726120227 69 281 0.0 0.0 0.00 0.00 0.00 1009.5
20170726120127 69 281 0.0 0.0 0.00 0.00 0.00 1009.5
20170726120027 69 281 0.0 0.0 0.00 0.00 0.00 1009.5
20170726115927 69 281 0.0 0.0 0.00 0.00 0.00 1009.5
20170726115827 69 281 0.0 0.0 0.00 0.00 0.00 1009.4
20170726115727 69 281 0.0 0.0 0.00 0.00 0.00 1009.4
20170726115627 69 305 5.0 0.0 0.00 0.00 0.00 1009.4
20170726115527 69 347 0.0 0.0 0.00 0.00 0.00 1009.4
20170726115427 69 322 3.0 0.0 0.00 0.00 0.00 1009.4
20170726115327 69 325 3.0 0.0 0.00 0.00 0.00 1009.4
20170726115227 69 346 4.0 0.0 0.00 0.00 0.00 1009.3
20170726115127 69 316 0.0 0.0 0.00 0.00 0.00 1009.4
20170726115027 69 316 0.0 0.0 0.00 0.00 0.00 1009.4
20170726114927 69 316 0.0 0.0 0.00 0.00 0.00 1009.4
20170726114827 69 316 0.0 0.0 0.00 0.00 0.00 1009.4
20170726114727 69 316 0.0 0.0 0.00 0.00 0.00 1009.4
20170726114627 69 316 0.0 0.0 0.00 0.00 0.00 1009.3
20170726114527 69 316 0.0 0.0 0.00 0.00 0.00 1009.3
20170726114427 69 295 0.0 0.0 0.00 0.00 0.00 1009.3
20170726114327 69 295 0.0 0.0 0.00 0.00 0.00 1009.3
20170726114227 69 314 5.0 0.0 0.00 0.00 0.00 1009.3
20170726114127 69 298 0.0 0.0 0.00 0.00 0.00 1009.3
20170726114027 69 298 0.0 0.0 0.00 0.00 0.00 1009.3
20170726113927 69 298 0.0 0.0 0.00 0.00 0.00 1009.3
20170726113827 69 298 0.0 0.0 0.00 0.00 0.00 1009.3
20170726113727 69 298 0.0 0.0 0.00 0.00 0.00 1009.3
20170726113627 69 298 0.0 0.0 0.00 0.00 0.00 1009.3
20170726113527 69 298 0.0 0.0 0.00 0.00 0.00 1009.4
20170726113427 69 298 0.0 0.0 0.00 0.00 0.00 1009.3
20170726113327 69 298 0.0 0.0 0.00 0.00 0.00 1009.3
20170726113227 69 298 0.0 0.0 0.00 0.00 0.00 1009.3
20170726113127 69 298 0.0 0.0 0.00 0.00 0.00 1009.3
20170726113027 69 298 0.0 0.0 0.00 0.00 0.00 1009.3
20170726112927 69 298 0.0 0.0 0.00 0.00 0.00 1009.3
20170726112827 69 304 4.0 0.0 0.00 0.00 0.00 1009.3
20170726112727 69 274 2.0 0.0 0.00 0.00 0.00 1009.3
20170726112627 69 259 3.0 0.0 0.00 0.00 0.00 1009.3
20170726112527 69 252 3.0 0.0 0.00 0.00 0.00 1009.4
20170726112427 69 284 4.0 0.0 0.00 0.00 0.00 1009.3
20170726112327 69 295 6.0 0.0 0.00 0.00 0.00 1009.4
20170726112227 69 295 0.0 0.0 0.00 0.00 0.00 1009.4
20170726112127 69 295 0.0 0.0 0.00 0.00 0.00 1009.3
20170726112027 69 295 0.0 0.0 0.00 0.00 0.00 1009.3
20170726111927 69 295 0.0 0.0 0.00 0.00 0.00 1009.3
20170726111827 69 295 0.0 0.0 0.00 0.00 0.00 1009.3
20170726111727 69 295 0.0 0.0 0.00 0.00 0.00 1009.3
20170726111628 69 295 0.0 0.0 0.00 0.00 0.00 1009.3
20170726111527 69 295 0.0 0.0 0.00 0.00 0.00 1009.3
20170726111427 69 295 0.0 0.0 0.00 0.00 0.00 1009.4
20170726111327 69 295 0.0 0.0 0.00 0.00 0.00 1009.4
20170726111227 69 295 0.0 0.0 0.00 0.00 0.00 1009.4
20170726111127 69 293 0.0 0.0 0.00 0.00 0.00 1009.4
20170726111027 69 314 4.0 0.0 0.00 0.00 0.00 1009.4
20170726110927 69 330 4.0 0.0 0.00 0.00 0.00 1009.4
20170726110827 69 322 6.0 0.0 0.00 0.00 0.00 1009.4
20170726110727 69 332 4.0 0.0 0.00 0.00 0.00 1009.4
20170726110627 69 309 3.0 0.0 0.00 0.00 0.00 1009.4
20170726110426 69 311 0.0 0.0 0.00 0.00 0.00 1009.4
20170726110226 69 311 0.0 0.0 0.00 0.00 0.00 1009.5
20170726110126 69 311 0.0 0.0 0.00 0.00 0.00 1009.4
20170726110026 69 311 0.0 0.0 0.00 0.00 0.00 1009.4
20170726105927 69 311 0.0 0.0 0.00 0.00 0.00 1009.4
20170726105826 69 319 2.0 0.0 0.00 0.00 0.00 1009.4
20170726105726 69 329 4.0 0.0 0.00 0.00 0.00 1009.4
20170726105627 69 330 5.0 0.0 0.00 0.00 0.00 1009.4
20170726105526 69 342 5.0 0.0 0.00 0.00 0.00 1009.4
20170726105426 69 323 4.0 0.0 0.00 0.00 0.00 1009.4
20170726105326 69 305 5.0 0.0 0.00 0.00 0.00 1009.4
20170726105226 69 308 0.0 0.0 0.00 0.00 0.00 1009.4
20170726105126 69 305 5.0 0.0 0.00 0.00 0.00 1009.4
20170726105026 69 304 6.0 0.0 0.00 0.00 0.00 1009.5
20170726104926 69 319 7.0 0.0 0.00 0.00 0.00 1009.5
20170726104826 69 291 0.0 0.0 0.00 0.00 0.00 1009.5
20170726104726 69 302 5.0 0.0 0.00 0.00 0.00 1009.5
20170726104626 69 291 4.0 0.0 0.00 0.00 0.00 1009.5
20170726104526 69 315 0.0 0.0 0.00 0.00 0.00 1009.5
20170726104426 69 312 3.0 0.0 0.00 0.00 0.00 1009.4
20170726104326 69 318 2.0 0.0 0.00 0.00 0.00 1009.5
20170726104226 69 305 3.0 0.0 0.00 0.00 0.00 1009.4
20170726104126 69 270 0.0 0.0 0.00 0.00 0.00 1009.5
20170726104026 69 298 4.0 0.0 0.00 0.00 0.00 1009.5
20170726103926 69 291 4.0 0.0 0.00 0.00 0.00 1009.5
20170726103826 69 285 0.0 0.0 0.00 0.00 0.00 1009.5
20170726103727 69 285 0.0 0.0 0.00 0.00 0.00 1009.5
20170726103626 69 285 0.0 0.0 0.00 0.00 0.00 1009.5
20170726103527 69 326 3.0 0.0 0.00 0.00 0.00 1009.5
20170726103426 69 236 5.0 0.0 0.00 0.00 0.00 1009.5
20170726103326 69 293 0.0 0.0 0.00 0.00 0.00 1009.5
20170726103226 69 293 0.0 0.0 0.00 0.00 0.00 1009.5
20170726103126 69 305 3.0 0.0 0.00 0.00 0.00 1009.5
20170726103026 69 293 0.0 0.0 0.00 0.00 0.00 1009.5
20170726102926 69 308 5.0 0.0 0.00 0.00 0.00 1009.5
20170726102826 69 312 6.0 0.0 0.00 0.00 0.00 1009.5
20170726102726 69 298 4.0 0.0 0.00 0.00 0.00 1009.5
20170726102626 69 319 0.0 0.0 0.00 0.00 0.00 1009.5
20170726102526 69 288 6.0 0.0 0.00 0.00 0.00 1009.5
20170726102426 69 300 6.0 0.0 0.00 0.00 0.00 1009.5
20170726102326 69 323 7.0 0.0 0.00 0.00 0.00 1009.5
20170726102227 69 315 6.0 0.0 0.00 0.00 0.00 1009.5
20170726102126 69 298 3.0 0.0 0.00 0.00 0.00 1009.5
20170726102026 69 311 3.0 0.0 0.00 0.00 0.00 1009.5
20170726101926 69 294 3.0 0.0 0.00 0.00 0.00 1009.5
20170726101826 69 318 5.0 0.0 0.00 0.00 0.00 1009.5
20170726101727 69 287 0.0 0.0 0.00 0.00 0.00 1009.5
20170726101626 69 287 0.0 0.0 0.00 0.00 0.00 1009.5
20170726101526 69 319 6.0 0.0 0.00 0.00 0.00 1009.5
20170726101426 69 307 6.0 0.0 0.00 0.00 0.00 1009.4
20170726101326 69 316 5.0 0.0 0.00 0.00 0.00 1009.5
20170726101226 69 304 6.0 0.0 0.00 0.00 0.00 1009.5
20170726101126 69 322 6.0 0.0 0.00 0.00 0.00 1009.5
20170726101026 69 290 5.0 0.0 0.00 0.00 0.00 1009.6
20170726100926 69 312 5.0 0.0 0.00 0.00 0.00 1009.6
20170726100826 69 304 6.0 0.0 0.00 0.00 0.00 1009.6
20170726100727 69 302 3.0 0.0 0.00 0.00 0.00 1009.6
20170726100626 69 312 3.0 0.0 0.00 0.00 0.00 1009.6
20170726100527 69 295 7.0 0.0 0.00 0.00 0.00 1009.6
20170726100426 69 246 0.0 0.0 0.00 0.00 0.00 1009.6
20170726100326 69 266 3.0 0.0 0.00 0.00 0.00 1009.6
20170726100226 69 305 3.0 0.0 0.00 0.00 0.00 1009.6
20170726100126 69 297 4.0 0.0 0.00 0.00 0.00 1009.6
20170726100026 69 283 0.0 0.0 0.00 0.00 0.00 1009.6
20170726095926 69 307 0.0 0.0 0.00 0.00 0.00 1009.6
20170726095826 69 298 0.0 0.0 0.00 0.00 0.00 1009.6
20170726095727 69 264 3.0 0.0 0.00 0.00 0.00 1009.6
20170726095626 69 245 0.0 0.0 0.00 0.00 0.00 1009.6
20170726095526 69 249 3.0 0.0 0.00 0.00 0.00 1009.6
20170726095426 69 308 0.0 0.0 0.00 0.00 0.00 1009.7
20170726095326 69 294 4.0 0.0 0.00 0.00 0.00 1009.7
20170726095226 69 302 0.0 0.0 0.00 0.00 0.00 1009.7
20170726095126 69 305 5.0 0.0 0.00 0.00 0.00 1009.7
20170726095026 69 305 4.0 0.0 0.00 0.00 0.00 1009.7
20170726094926 69 304 5.0 0.0 0.00 0.00 0.00 1009.6
20170726094826 69 301 3.0 0.0 0.00 0.00 0.00 1009.7
20170726094726 69 316 5.0 0.0 0.00 0.00 0.00 1009.7
20170726094626 69 262 0.0 0.0 0.00 0.00 0.00 1009.7
20170726094526 69 262 0.0 0.0 0.00 0.00 0.00 1009.7
20170726094426 69 262 0.0 0.0 0.00 0.00 0.00 1009.7
20170726094326 69 262 0.0 0.0 0.00 0.00 0.00 1009.8
20170726094226 69 262 0.0 0.0 0.00 0.00 0.00 1009.8
20170726094126 69 281 5.0 0.0 0.00 0.00 0.00 1009.8
20170726094026 69 297 0.0 0.0 0.00 0.00 0.00 1009.8
20170726093926 69 298 2.0 0.0 0.00 0.00 0.00 1009.8
20170726093826 69 300 5.0 0.0 0.00 0.00 0.00 1009.8
20170726093626 69 270 0.0 0.0 0.00 0.00 0.00 1009.7
20170726093527 69 270 0.0 0.0 0.00 0.00 0.00 1009.8
20170726093426 69 270 0.0 0.0 0.00 0.00 0.00 1009.8
20170726093327 69 270 0.0 0.0 0.00 0.00 0.00 1009.8
20170726093226 69 270 0.0 0.0 0.00 0.00 0.00 1009.8
20170726093129 69 270 0.0 0.0 0.00 0.00 0.00 1009.8
20170726093026 69 270 0.0 0.0 0.00 0.00 0.00 1009.8
20170726092926 69 270 0.0 0.0 0.00 0.00 0.00 1009.8
20170726092826 69 262 3.0 0.0 0.00 0.00 0.00 1009.8
20170726092726 69 284 0.0 0.0 0.00 0.00 0.00 1009.8
20170726092626 69 284 0.0 0.0 0.00 0.00 0.00 1009.7
20170726092526 69 284 0.0 0.0 0.00 0.00 0.00 1009.7
20170726092427 69 284 0.0 0.0 0.00 0.00 0.00 1009.8
20170726092326 69 284 0.0 0.0 0.00 0.00 0.00 1009.8
20170726092127 69 284 0.0 0.0 0.00 0.00 0.00 1009.8
20170726092026 69 284 0.0 0.0 0.00 0.00 0.00 1009.8
20170726091929 69 284 0.0 0.0 0.00 0.00 0.00 1009.8
20170726091829 69 284 0.0 0.0 0.00 0.00 0.00 1009.7
20170726091626 69 284 0.0 0.0 0.00 0.00 0.00 1009.7
20170726091531 69 284 0.0 0.0 0.00 0.00 0.00 1009.7
20170726091431 69 284 0.0 0.0 0.00 0.00 0.00 1009.7
20170726091326 69 284 0.0 0.0 0.00 0.00 0.00 1009.7
20170726091226 69 284 0.0 0.0 0.00 0.00 0.00 1009.8
20170726091126 69 263 0.0 0.0 0.00 0.00 0.00 1009.8
20170726091026 69 253 3.0 0.0 0.00 0.00 0.00 1009.8
20170726090926 69 277 3.0 0.0 0.00 0.00 0.00 1009.8
20170726090826 69 246 6.0 0.0 0.00 0.00 0.00 1009.8
20170726090726 69 264 5.0 0.0 0.00 0.00 0.00 1009.8
20170726090626 69 264 0.0 0.0 0.00 0.00 0.00 1009.8
20170726090527 69 264 0.0 0.0 0.00 0.00 0.00 1009.8
20170726090426 69 264 0.0 0.0 0.00 0.00 0.00 1009.8
20170726090326 69 287 3.0 0.0 0.00 0.00 0.00 1009.8
20170726090226 69 243 0.0 0.0 0.00 0.00 0.00 1009.8
20170726090126 69 259 3.0 0.0 0.00 0.00 0.00 1009.8
20170726090026 69 285 0.0 0.0 0.00 0.00 0.00 1009.8
20170726085926 69 285 3.0 0.0 0.00 0.00 0.00 1009.8
20170726085826 69 283 4.0 0.0 0.00 0.00 0.00 1009.8
20170726085726 69 298 5.0 0.0 0.00 0.00 0.00 1009.8
20170726085626 69 278 0.0 0.0 0.00 0.00 0.00 1009.8
20170726085526 69 273 3.0 0.0 0.00 0.00 0.00 1009.8
20170726085426 69 276 0.0 0.0 0.00 0.00 0.00 1009.8
20170726085326 69 260 3.0 0.0 0.00 0.00 0.00 1009.8
20170726085226 69 300 3.0 0.0 0.00 0.00 0.00 1009.8
20170726085126 69 256 0.0 0.0 0.00 0.00 0.00 1009.8
20170726085026 69 256 0.0 0.0 0.00 0.00 0.00 1009.8
20170726084926 69 256 0.0 0.0 0.00 0.00 0.00 1009.7
20170726084826 69 256 0.0 0.0 0.00 0.00 0.00 1009.8
20170726084726 69 256 0.0 0.0 0.00 0.00 0.00 1009.7
20170726084626 69 256 0.0 0.0 0.00 0.00 0.00 1009.7
20170726084526 69 283 6.0 0.0 0.00 0.00 0.00 1009.7
20170726084426 69 284 2.0 0.0 0.00 0.00 0.00 1009.7
20170726084326 69 250 5.0 0.0 0.00 0.00 0.00 1009.7
20170726084226 69 276 5.0 0.0 0.00 0.00 0.00 1009.7
20170726084126 69 249 0.0 0.0 0.00 0.00 0.00 1009.7
20170726084026 69 315 5.0 0.0 0.00 0.00 0.00 1009.7